Regional Weather Roundup
Issued by NWS Lake Charles, LA

Home | Current Version | Previous Version | Text Only | Print | Product List | Glossary On
Versions: 1 2 3 4 5 6 7 8 9 10 11 12 13 14 15 16 17 18 19 20 21 22 23 24 25 26 27
000
ASUS44 KLCH 211310
RWRLCH
RWRLCH
REGIONAL WEATHER ROUNDUP
NATIONAL WEATHER SERVICE LAKE CHARLES LA
800 AM CDT MON APR 21 2014

Note: "fair" indicates few or no clouds below 12,000 feet with no
significant weather and/or obstructions to visibility.


ACROSS SOUTHEAST TEXAS

CITY           SKY/WX    TMP DP  RH WIND       PRES   REMARKS
BEAUMONT       MOSUNNY   64  63  96 CALM      30.10S
BEAUMONT CITY    N/A     61  61 100 S6        30.10S FOG
ORANGE         MOSUNNY   60  60 100 CALM      30.12S FOG
JASPER         SUNNY     59  58  96 S6        30.11S
$$

ACROSS CENTRAL LOUISIANA

CITY           SKY/WX    TMP DP  RH WIND       PRES   REMARKS
LEESVILLE      MOSUNNY   62  55  77 CALM      30.09S
FULLERTON        N/A     63  56  78 CALM      30.08R
ALEXANDRIA INT SUNNY     61  58  90 SE6       30.08S
ESLER FIELD    SUNNY     61  57  87 SE3       30.10S
DERIDDER         N/A     59  56  88 CALM      30.12S
OAKDALE        MOSUNNY   58  57  96 CALM      30.11S FOG
OPELOUSAS      FOG       60  60 100 SE5       30.13R VSB<1/4
$$

ACROSS SOUTHWEST AND SOUTH CENTRAL LOUISIANA

CITY           SKY/WX    TMP DP  RH WIND       PRES   REMARKS
SULPHUR        FOG       61  61 100 CALM      30.12R VSB 1/2
LAKE CHARLES   PTSUNNY   60  59  96 CALM      30.11S FOG
CHENNAULT INT  FOG       57  57 100 SW5       30.12R VSB 1/2
CAMERON PHI    MOSUNNY   63  63 100 CALM      30.12S
DEQUINCY         N/A     56  55  95 CALM      30.12R
JENNINGS       FOG       60  60 100 SE5       30.12S VSB<1/4
LAFAYETTE      FOG      N/A N/A N/A CALM      30.13S VSB 1/4
NEW IBERIA     PTSUNNY   65  64  97 SE6       30.14S
ABBEVILLE      FOG      N/A N/A N/A E5        30.13S VSB<1/4
PATTERSON      SUNNY     63  63 100 CALM      30.16S
SALT POINT       N/A     66  63  90 SE3       30.13R
$$

SELECTED SITES ACROSS THE REGION

CITY           SKY/WX    TMP DP  RH WIND       PRES   REMARKS
HOUSTON BUSH   MOSUNNY   66  63  90 S9        30.08S
HOUSTON HOBBY  MOSUNNY   65  63  93 SE5       30.08S
GALVESTON      PTSUNNY   68  67  96 SE8       30.09S
COLLEGE STAT   CLOUDY    66  63  90 S12       30.05S
CONROE         PTSUNNY   63  63 100 SE7       30.08S FOG
HUNTSVILLE     CLOUDY    66  62  87 S9        30.07R
LUFKIN         PTSUNNY   65  60  84 S5        30.08R
SHREVEPORT     CLOUDY    63  55  75 S7        30.05S
MONROE         SUNNY     62  57  83 S6        30.08S
NATCHEZ MS     SUNNY     61  57  88 S8        30.13S
BATON ROUGE    MOSUNNY   65  61  87 SE3       30.14S FOG
N.O. INTL ARPT MOSUNNY   64  59  83 SE3       30.15R
SLIDELL        SUNNY     60  57  89 CALM      30.15S
$$

MARINE REPORTS

STATION/POSITION TIME  TEMP    WIND        PRES    VSBY  WAVE
                       AIR SEA DIR/SP/G                  HT/PER
                 (UTC) (F)     (DEG/KT/KT) (MB)    (MI)  (FT/S)
BUOY 30 S HIGH I 1300   68 68  140/  4/  6 1019.1R         1/ 4
SEA RIM ST PARK  1300   68     180/  6/  8 1019.7F
PORT ARTHUR      1300      69  200/  3/  4 1019.4R
SABINE PASS N    1300   67 69  180/  4/  5 1019.2S
TEXAS POINT      1300   68 69  190/  6/  8 1019.6S
CALCASIEU PASS   1300   68 70  240/  2/  3 1020.7R
LK CHARLES BEACH 1300   64 68              1020.1S
MARSH ISLAND     1200   69     150/  8/  9   N/A
FRESH WATER LOCK 1300   67 71  100/  2/  4 1019.8S
AMERADA PASS     1300   66 62  110/  2/  4 1020.3F
$$



USA.gov is the U.S. government's official web portal to all federal, state and local government web resources and services.